Location: Newark
(43.0000°N, 1.6781°W)
Time: 11:51:40
(UTC+00:00)

Explorer 7 - Visible Passes

Search period start: 18 April 2021 00:00
Search period end: 28 April 2021 00:00
Orbit: 484 x 677 km, 50.3° (Epoch: 17 April)

Date Brightness Start Highest point End Pass type
(mag) Time Alt. Az. Time Alt. Az. Time Alt. Az.
18 Apr 7.7 03:09:24 41° S 03:09:24 41° S 03:12:56 10° SE visible
18 Apr 9.1 04:47:21 10° WSW 04:48:03 10° SW 04:48:46 10° SW visible
18 Apr 6.8 20:25:00 10° SW 20:28:57 61° SE 20:32:01 18° ENE visible
18 Apr 8.5 22:05:42 10° W 22:08:24 32° NW 22:08:24 32° NW visible
19 Apr 9.3 03:16:12 14° SSE 03:16:12 14° SSE 03:16:57 10° SSE visible
19 Apr 6.7 20:29:22 10° WSW 20:33:23 88° NW 20:37:33 11° ENE visible
19 Apr 8.5 22:10:27 10° WNW 22:13:55 34° NNW 22:13:55 34° NNW visible
20 Apr 7.3 20:33:53 10° WSW 20:37:53 62° NNW 20:42:10 10° ENE visible
20 Apr 8.6 22:15:11 10° WNW 22:18:52 31° N 22:18:52 31° N visible
21 Apr 7.8 20:38:32 10° W 20:42:27 46° NNW 20:46:37 10° NE visible
21 Apr 8.6 22:19:52 10° WNW 22:23:29 30° N 22:23:29 30° N visible
22 Apr 8.2 20:43:15 10° W 20:47:02 37° NNW 20:51:06 10° NE visible
22 Apr 8.6 22:24:30 10° WNW 22:27:53 31° N 22:27:53 31° N visible
23 Apr 8.5 20:48:00 10° WNW 20:51:42 32° N 20:55:37 10° NE visible
23 Apr 8.6 22:29:03 10° NW 22:32:08 32° NNW 22:32:08 32° NNW visible
24 Apr 8.6 20:52:43 10° WNW 20:56:21 30° N 21:00:02 11° ENE visible
24 Apr 8.6 22:33:33 10° NW 22:36:18 32° NNW 22:36:18 32° NNW visible
25 Apr 8.5 20:57:23 10° WNW 21:01:02 30° N 21:04:10 14° ENE visible
25 Apr 8.6 22:37:59 10° NW 22:40:26 31° NW 22:40:26 31° NW visible
26 Apr 8.4 21:01:59 10° NW 21:05:41 31° N 21:08:15 17° ENE visible
26 Apr 8.7 22:42:25 10° WNW 22:44:32 29° NW 22:44:32 29° NW visible
27 Apr 8.5 19:25:31 10° WNW 19:29:05 30° N 19:32:49 10° NE visible
27 Apr 8.2 21:06:31 10° NW 21:10:19 35° NNE 21:12:20 23° ENE visible
27 Apr 8.9 22:46:52 10° WNW 22:48:37 24° WNW 22:48:37 24° WNW visible
